When you browse on this site, cookies collect data to enhance your experience and personalize the content and advertising you see.
Visit our Privacy Policy to learn more. By continuing to use the site, you agree to this use of cookies and data.
  • In Schweiz
  • Länderverzeichnis
  • Für 7 Tage
  • Wassertemperatur
  • Satellitenkarten
  • Wetterkarte
  • Widgets
  • user-avatar
    Anmelden

    Stündliche Wetter Tovstodubove

    Heute, 17 Juli, Mittwoch

    Zeit Temperatur Niederschläge Wind Luftdruck Luftfeuchtigkeit
    00:00 +14°C° 0 mm 1 m/S 737 mmHg 90%
    01:00 +14°C° 0 mm 1 m/S 737 mmHg 90%
    02:00 +14°C° 0 mm 1 m/S 737 mmHg 91%
    03:00 +13°C° 0 mm 0 m/S 737 mmHg 91%
    04:00 +13°C° 0 mm 0 m/S 736 mmHg 91%
    05:00 +13°C° 0 mm 0 m/S 736 mmHg 92%
    06:00 +15°C° 0 mm 0 m/S 736 mmHg 87%
    07:00 +18°C° 0 mm 1 m/S 736 mmHg 81%
    08:00 +20°C° 0 mm 1 m/S 736 mmHg 76%
    09:00 +21°C° 0.3 mm 1 m/S 736 mmHg 71%
    10:00 +21°C° 0.3 mm 2 m/S 736 mmHg 66%
    11:00 +23°C° 0.3 mm 2 m/S 736 mmHg 61%
    12:00 +22°C° 0.2 mm 3 m/S 736 mmHg 62%
    13:00 +22°C° 0.2 mm 4 m/S 736 mmHg 63%
    14:00 +22°C° 0.2 mm 4 m/S 735 mmHg 64%
    15:00 +21°C° 0.2 mm 4 m/S 735 mmHg 67%
    16:00 +21°C° 0.2 mm 4 m/S 735 mmHg 70%
    17:00 +20°C° 0.2 mm 4 m/S 735 mmHg 73%
    18:00 +18°C° 0.1 mm 4 m/S 735 mmHg 78%
    19:00 +17°C° 0.1 mm 3 m/S 735 mmHg 84%
    20:00 +15°C° 0.1 mm 2 m/S 735 mmHg 89%
    21:00 +15°C° 0 mm 2 m/S 735 mmHg 90%
    22:00 +14°C° 0 mm 2 m/S 735 mmHg 91%
    23:00 +13°C° 0 mm 2 m/S 735 mmHg 92%

    Morgen, 18 Juli, Donnerstag

    Zeit Temperatur Niederschläge Wind Luftdruck Luftfeuchtigkeit
    00:00 +13°C° 0 mm 2 m/S 736 mmHg 93%
    01:00 +13°C° 0 mm 2 m/S 736 mmHg 93%
    02:00 +13°C° 0 mm 2 m/S 736 mmHg 93%
    03:00 +13°C° 0 mm 2 m/S 736 mmHg 93%
    04:00 +13°C° 0 mm 2 m/S 736 mmHg 94%
    05:00 +13°C° 0 mm 2 m/S 736 mmHg 94%
    06:00 +13°C° 0 mm 3 m/S 736 mmHg 90%
    07:00 +16°C° 0 mm 3 m/S 736 mmHg 85%
    08:00 +17°C° 0 mm 4 m/S 736 mmHg 80%
    09:00 +18°C° 0.3 mm 4 m/S 736 mmHg 76%
    10:00 +19°C° 0.3 mm 5 m/S 737 mmHg 71%
    11:00 +20°C° 0.3 mm 5 m/S 737 mmHg 66%
    12:00 +20°C° 0.5 mm 6 m/S 737 mmHg 67%
    13:00 +20°C° 0.5 mm 6 m/S 737 mmHg 68%
    14:00 +20°C° 0.5 mm 6 m/S 737 mmHg 69%
    15:00 +20°C° 0.4 mm 6 m/S 737 mmHg 72%
    16:00 +19°C° 0.4 mm 6 m/S 737 mmHg 75%
    17:00 +19°C° 0.4 mm 5 m/S 737 mmHg 78%
    18:00 +17°C° 0 mm 5 m/S 737 mmHg 83%
    19:00 +17°C° 0 mm 4 m/S 737 mmHg 88%
    20:00 +14°C° 0 mm 3 m/S 738 mmHg 93%
    21:00 +14°C° 0 mm 3 m/S 738 mmHg 94%
    22:00 +13°C° 0 mm 3 m/S 738 mmHg 95%
    23:00 +13°C° 0 mm 3 m/S 738 mmHg 96%

    übermorgen, 19 Juli, Freitag

    Zeit Temperatur Niederschläge Wind Luftdruck Luftfeuchtigkeit
    00:00 +13°C° 0 mm 3 m/S 739 mmHg 96%
    01:00 +12°C° 0 mm 3 m/S 739 mmHg 96%
    02:00 +12°C° 0 mm 3 m/S 739 mmHg 97%
    03:00 +12°C° 0 mm 3 m/S 739 mmHg 97%
    04:00 +12°C° 0 mm 3 m/S 739 mmHg 97%
    05:00 +12°C° 0 mm 4 m/S 739 mmHg 97%
    06:00 +14°C° 0 mm 4 m/S 739 mmHg 94%
    07:00 +15°C° 0 mm 4 m/S 740 mmHg 91%
    08:00 +17°C° 0 mm 4 m/S 740 mmHg 89%
    09:00 +18°C° 0 mm 4 m/S 740 mmHg 85%
    10:00 +19°C° 0 mm 5 m/S 740 mmHg 82%
    11:00 +20°C° 0 mm 5 m/S 740 mmHg 79%
    12:00 +20°C° 0.1 mm 5 m/S 741 mmHg 77%
    13:00 +21°C° 0.1 mm 5 m/S 741 mmHg 74%
    14:00 +22°C° 0.1 mm 5 m/S 741 mmHg 72%
    15:00 +21°C° 0.3 mm 4 m/S 741 mmHg 73%
    16:00 +21°C° 0.3 mm 4 m/S 741 mmHg 74%
    17:00 +21°C° 0.3 mm 4 m/S 741 mmHg 76%
    18:00 +20°C° 0 mm 3 m/S 741 mmHg 81%
    19:00 +18°C° 0 mm 3 m/S 742 mmHg 86%
    20:00 +17°C° 0 mm 2 m/S 742 mmHg 91%
    21:00 +16°C° 0 mm 2 m/S 742 mmHg 91%
    22:00 +16°C° 0 mm 2 m/S 742 mmHg 92%
    23:00 +15°C° 0 mm 2 m/S 743 mmHg 92%

    20 Juli, Samstag

    Zeit Temperatur Niederschläge Wind Luftdruck Luftfeuchtigkeit
    00:00 +15°C° 0 mm 2 m/S 743 mmHg 92%
    01:00 +14°C° 0 mm 2 m/S 743 mmHg 92%
    02:00 +14°C° 0 mm 2 m/S 743 mmHg 92%
    03:00 +14°C° 0 mm 2 m/S 743 mmHg 92%
    04:00 +14°C° 0 mm 2 m/S 743 mmHg 92%
    05:00 +14°C° 0 mm 2 m/S 743 mmHg 91%
    06:00 +16°C° 0 mm 3 m/S 743 mmHg 86%
    07:00 +18°C° 0 mm 3 m/S 744 mmHg 81%
    08:00 +20°C° 0 mm 3 m/S 744 mmHg 76%
    09:00 +21°C° 0.4 mm 3 m/S 744 mmHg 73%
    10:00 +22°C° 0.4 mm 4 m/S 744 mmHg 69%
    11:00 +23°C° 0.4 mm 4 m/S 745 mmHg 66%
    12:00 +24°C° 0.6 mm 3 m/S 745 mmHg 66%
    13:00 +24°C° 0.6 mm 3 m/S 745 mmHg 67%
    14:00 +24°C° 0.6 mm 3 m/S 745 mmHg 67%
    15:00 +24°C° 0.2 mm 3 m/S 745 mmHg 67%
    16:00 +24°C° 0.2 mm 2 m/S 745 mmHg 67%
    17:00 +24°C° 0.2 mm 2 m/S 745 mmHg 67%
    18:00 +23°C° 0.1 mm 2 m/S 745 mmHg 73%
    19:00 +21°C° 0.1 mm 1 m/S 745 mmHg 78%
    20:00 +19°C° 0.1 mm 1 m/S 745 mmHg 83%
    21:00 +19°C° 0 mm 1 m/S 745 mmHg 83%
    22:00 +18°C° 0 mm 1 m/S 745 mmHg 84%
    23:00 +18°C° 0 mm 1 m/S 745 mmHg 85%

    21 Juli, Sonntag

    Zeit Temperatur Niederschläge Wind Luftdruck Luftfeuchtigkeit
    00:00 +16°C° 0 mm 1 m/S 745 mmHg 85%
    01:00 +16°C° 0 mm 1 m/S 745 mmHg 86%
    02:00 +16°C° 0 mm 1 m/S 745 mmHg 86%
    03:00 +16°C° 0 mm 1 m/S 745 mmHg 86%
    04:00 +16°C° 0 mm 1 m/S 745 mmHg 87%
    05:00 +16°C° 0 mm 1 m/S 745 mmHg 87%
    06:00 +19°C° 0 mm 1 m/S 745 mmHg 82%
    07:00 +21°C° 0 mm 1 m/S 745 mmHg 77%
    08:00 +22°C° 0 mm 1 m/S 746 mmHg 73%
    09:00 +23°C° 0.8 mm 2 m/S 746 mmHg 69%
    10:00 +25°C° 0.8 mm 2 m/S 746 mmHg 65%
    11:00 +26°C° 0.8 mm 3 m/S 746 mmHg 61%
    12:00 +26°C° 0.5 mm 3 m/S 746 mmHg 60%
    13:00 +26°C° 0.5 mm 3 m/S 745 mmHg 60%
    14:00 +26°C° 0.5 mm 3 m/S 745 mmHg 60%
    15:00 +26°C° 0.3 mm 2 m/S 745 mmHg 62%
    16:00 +26°C° 0.3 mm 2 m/S 745 mmHg 65%
    17:00 +25°C° 0.3 mm 2 m/S 745 mmHg 67%
    18:00 +24°C° 0.1 mm 2 m/S 745 mmHg 72%
    19:00 +22°C° 0.1 mm 1 m/S 745 mmHg 76%
    20:00 +20°C° 0.1 mm 1 m/S 745 mmHg 81%
    21:00 +20°C° 0 mm 1 m/S 745 mmHg 82%
    22:00 +19°C° 0 mm 1 m/S 745 mmHg 84%
    23:00 +18°C° 0 mm 1 m/S 745 mmHg 86%

    22 Juli, Montag

    Zeit Temperatur Niederschläge Wind Luftdruck Luftfeuchtigkeit
    00:00 +18°C° 0 mm 1 m/S 745 mmHg 85%
    01:00 +18°C° 0 mm 1 m/S 745 mmHg 85%
    02:00 +15°C° 0 mm 0 m/S 745 mmHg 85%
    03:00 +15°C° 0 mm 0 m/S 745 mmHg 85%
    04:00 +16°C° 0 mm 0 m/S 745 mmHg 84%
    05:00 +16°C° 0 mm 0 m/S 745 mmHg 83%
    06:00 +17°C° 0 mm 0 m/S 745 mmHg 79%
    07:00 +19°C° 0 mm 0 m/S 745 mmHg 75%
    08:00 +22°C° 0 mm 1 m/S 745 mmHg 71%
    09:00 +24°C° 0 mm 1 m/S 745 mmHg 67%
    10:00 +25°C° 0 mm 1 m/S 746 mmHg 63%
    11:00 +26°C° 0 mm 1 m/S 746 mmHg 59%
    12:00 +26°C° 0 mm 1 m/S 745 mmHg 55%
    13:00 +25°C° 0 mm 0 m/S 745 mmHg 52%
    14:00 +25°C° 0 mm 0 m/S 745 mmHg 49%
    15:00 +25°C° 0 mm 0 m/S 745 mmHg 52%
    16:00 +24°C° 0 mm 0 m/S 745 mmHg 56%
    17:00 +24°C° 0 mm 0 m/S 744 mmHg 59%
    18:00 +25°C° 0 mm 1 m/S 744 mmHg 61%
    19:00 +23°C° 0 mm 1 m/S 744 mmHg 63%
    20:00 +22°C° 0 mm 1 m/S 744 mmHg 64%
    21:00 +21°C° 0 mm 2 m/S 744 mmHg 66%
    22:00 +21°C° 0 mm 2 m/S 744 mmHg 68%
    23:00 +20°C° 0 mm 3 m/S 743 mmHg 69%
    Mehr zeigen